TimeCDT,TemperatureF,Dew PointF,Humidity,Sea Level PressureIn,VisibilityMPH,Wind Direction,Wind SpeedMPH,Gust SpeedMPH,PrecipitationIn,Events,Conditions,WindDirDegrees,DateUTC
12:15 AM,66.6,62.8,88,30.03,10.0,SSE,5.8,-,N/A,,Clear,160,2013-09-07 05:15:00
12:35 AM,66.6,62.8,88,30.03,10.0,SSE,4.6,-,N/A,,Clear,160,2013-09-07 05:35:00
12:55 AM,66.6,62.8,88,30.03,10.0,SSE,4.6,-,N/A,,Clear,160,2013-09-07 05:55:00
1:15 AM,66.0,62.8,89,30.03,10.0,South,4.6,-,N/A,,Clear,170,2013-09-07 06:15:00
1:35 AM,65.7,62.6,90,30.03,10.0,South,3.5,-,N/A,,Clear,170,2013-09-07 06:35:00
1:55 AM,64.4,62.4,93,30.02,10.0,Calm,Calm,-,N/A,,Clear,0,2013-09-07 06:55:00
2:15 AM,63.5,61.9,94,30.02,10.0,South,3.5,-,N/A,,Clear,180,2013-09-07 07:15:00
2:35 AM,65.1,62.6,92,30.02,10.0,South,4.6,-,N/A,,Clear,190,2013-09-07 07:35:00
2:55 AM,64.9,62.6,92,30.02,10.0,SSW,4.6,-,N/A,,Clear,200,2013-09-07 07:55:00
3:15 AM,64.9,62.8,93,30.01,10.0,South,5.8,-,N/A,,Clear,190,2013-09-07 08:15:00
3:35 AM,64.0,62.2,94,30.01,10.0,SSW,6.9,-,N/A,,Clear,200,2013-09-07 08:35:00
3:55 AM,62.8,61.7,96,30.01,7.0,South,4.6,-,N/A,,Clear,190,2013-09-07 08:55:00
4:15 AM,63.3,61.9,95,30.00,10.0,South,4.6,-,N/A,,Clear,170,2013-09-07 09:15:00
4:35 AM,63.5,61.7,94,30.01,10.0,South,4.6,-,N/A,,Clear,190,2013-09-07 09:35:00
4:55 AM,62.6,61.2,95,30.01,7.0,South,4.6,-,N/A,,Clear,180,2013-09-07 09:55:00
5:15 AM,61.7,60.6,96,30.01,7.0,South,4.6,-,N/A,,Clear,170,2013-09-07 10:15:00
5:35 AM,62.1,60.6,95,30.01,10.0,South,4.6,-,N/A,,Clear,180,2013-09-07 10:35:00
5:55 AM,61.3,60.6,97,30.01,7.0,South,4.6,-,N/A,,Clear,170,2013-09-07 10:55:00
6:15 AM,61.7,60.1,94,30.01,10.0,South,3.5,-,N/A,,Clear,180,2013-09-07 11:15:00
6:35 AM,61.0,59.9,96,30.03,7.0,Calm,Calm,-,N/A,,Clear,0,2013-09-07 11:35:00
6:55 AM,60.6,60.3,99,30.03,7.0,South,3.5,-,N/A,,Clear,180,2013-09-07 11:55:00
7:15 AM,61.9,60.4,95,30.02,7.0,South,3.5,-,N/A,,Clear,190,2013-09-07 12:15:00
7:35 AM,63.0,61.2,94,30.03,7.0,Calm,Calm,-,N/A,,Clear,0,2013-09-07 12:35:00
7:55 AM,65.3,61.9,89,30.03,10.0,Calm,Calm,-,N/A,,Clear,0,2013-09-07 12:55:00
8:15 AM,68.0,63.3,85,30.01,10.0,South,5.8,-,N/A,,Clear,180,2013-09-07 13:15:00
8:35 AM,68.9,63.3,82,30.00,10.0,South,6.9,-,N/A,,Mostly Cloudy,180,2013-09-07 13:35:00
8:55 AM,69.4,63.7,82,30.02,10.0,SSW,4.6,-,N/A,,Scattered Clouds,210,2013-09-07 13:55:00
9:15 AM,70.3,64.2,81,30.01,10.0,South,5.8,-,N/A,,Clear,180,2013-09-07 14:15:00
9:35 AM,71.4,64.8,79,30.00,10.0,South,8.1,-,N/A,,Clear,190,2013-09-07 14:35:00
9:55 AM,75.0,65.7,73,30.01,10.0,SSW,5.8,-,N/A,,Clear,200,2013-09-07 14:55:00
10:15 AM,77.9,65.5,65,30.01,10.0,SSW,9.2,-,N/A,,Clear,210,2013-09-07 15:15:00
10:35 AM,78.8,66.0,65,30.03,10.0,SSW,4.6,-,N/A,,Clear,210,2013-09-07 15:35:00
10:55 AM,81.7,64.6,56,30.02,10.0,SW,8.1,-,N/A,,Clear,220,2013-09-07 15:55:00
11:15 AM,82.9,65.5,55,30.01,10.0,SSW,6.9,-,N/A,,Clear,210,2013-09-07 16:15:00
11:35 AM,83.8,66.6,56,30.00,10.0,SSW,9.2,-,N/A,,Clear,200,2013-09-07 16:35:00
11:55 AM,85.5,66.7,53,29.99,10.0,SSW,10.4,16.1,N/A,,Clear,200,2013-09-07 16:55:00
12:15 PM,86.4,66.9,52,29.98,10.0,South,10.4,-,N/A,,Clear,190,2013-09-07 17:15:00
12:35 PM,86.2,66.7,52,29.95,10.0,South,12.7,-,N/A,,Clear,190,2013-09-07 17:35:00
12:55 PM,85.8,66.9,53,29.95,10.0,SSW,12.7,-,N/A,,Clear,210,2013-09-07 17:55:00
1:15 PM,86.4,67.1,52,29.94,10.0,SSW,13.8,-,N/A,,Clear,200,2013-09-07 18:15:00
1:35 PM,85.5,68.2,56,29.94,10.0,SSW,9.2,-,N/A,,Clear,210,2013-09-07 18:35:00
1:55 PM,86.2,68.7,56,29.94,10.0,SSW,10.4,-,N/A,,Clear,210,2013-09-07 18:55:00
2:15 PM,86.0,69.1,57,29.93,10.0,South,6.9,-,N/A,,Clear,190,2013-09-07 19:15:00
2:35 PM,89.4,69.1,51,29.91,10.0,SSW,10.4,-,N/A,,Clear,200,2013-09-07 19:35:00
2:55 PM,89.6,69.1,51,29.91,10.0,South,11.5,-,N/A,,Clear,190,2013-09-07 19:55:00
3:15 PM,88.3,68.7,52,29.91,10.0,South,10.4,-,N/A,,Clear,190,2013-09-07 20:15:00
3:35 PM,87.3,68.2,53,29.90,10.0,SSW,10.4,16.1,N/A,,Clear,200,2013-09-07 20:35:00
3:55 PM,88.9,68.4,51,29.91,10.0,South,12.7,-,N/A,,Clear,190,2013-09-07 20:55:00
4:15 PM,90.0,68.7,49,29.91,10.0,South,9.2,-,N/A,,Clear,190,2013-09-07 21:15:00
4:35 PM,89.6,68.2,49,29.90,10.0,SSW,9.2,-,N/A,,Clear,200,2013-09-07 21:35:00
4:55 PM,89.4,68.7,50,29.90,10.0,South,9.2,-,N/A,,Clear,190,2013-09-07 21:55:00
5:15 PM,89.1,69.4,52,29.90,10.0,South,4.6,-,N/A,,Clear,180,2013-09-07 22:15:00
5:35 PM,88.5,69.4,53,29.90,10.0,South,6.9,-,N/A,,Clear,170,2013-09-07 22:35:00
5:55 PM,85.1,69.8,60,29.90,10.0,SSE,4.6,-,N/A,,Clear,150,2013-09-07 22:55:00
6:15 PM,83.8,70.0,63,29.91,10.0,SSE,4.6,-,N/A,,Clear,160,2013-09-07 23:15:00
6:35 PM,82.8,70.2,66,29.90,10.0,SE,4.6,-,N/A,,Scattered Clouds,130,2013-09-07 23:35:00
6:55 PM,82.6,69.8,65,29.90,10.0,SE,3.5,-,N/A,,Scattered Clouds,140,2013-09-07 23:55:00
7:15 PM,81.7,69.6,67,29.90,10.0,SE,3.5,-,N/A,,Clear,140,2013-09-08 00:15:00
7:35 PM,81.0,69.8,69,29.89,10.0,SSE,4.6,-,N/A,,Clear,150,2013-09-08 00:35:00
7:55 PM,80.6,70.2,70,29.90,10.0,SE,3.5,-,N/A,,Clear,140,2013-09-08 00:55:00
8:15 PM,80.6,70.0,70,29.90,10.0,SE,5.8,-,N/A,,Clear,140,2013-09-08 01:15:00
8:35 PM,79.7,70.2,73,29.90,10.0,SSE,3.5,-,N/A,,Clear,150,2013-09-08 01:35:00
8:55 PM,78.8,70.2,75,29.90,10.0,SSE,4.6,-,N/A,,Clear,150,2013-09-08 01:55:00
9:15 PM,78.1,70.3,77,29.90,10.0,SE,4.6,-,N/A,,Clear,140,2013-09-08 02:15:00
9:35 PM,77.4,70.3,79,29.91,10.0,Calm,Calm,-,N/A,,Scattered Clouds,0,2013-09-08 02:35:00
9:55 PM,77.0,70.2,79,29.91,10.0,SE,4.6,-,N/A,Rain,Light Rain,140,2013-09-08 02:55:00
10:15 PM,77.0,69.8,78,29.91,10.0,ESE,3.5,-,N/A,Rain,Light Rain,120,2013-09-08 03:15:00
10:35 PM,77.0,69.8,78,29.91,10.0,ESE,5.8,-,N/A,,Light Drizzle,120,2013-09-08 03:35:00
10:55 PM,77.4,69.1,76,29.91,10.0,ESE,5.8,-,N/A,,Scattered Clouds,120,2013-09-08 03:55:00
11:15 PM,77.4,68.9,75,29.91,10.0,SE,3.5,-,N/A,,Scattered Clouds,130,2013-09-08 04:15:00
11:35 PM,77.5,68.4,73,29.91,10.0,SSE,3.5,-,N/A,,Mostly Cloudy,150,2013-09-08 04:35:00
11:55 PM,77.5,68.4,73,29.91,10.0,SSE,4.6,-,N/A,,Mostly Cloudy,150,2013-09-08 04:55:00